Time,TemperatureF,DewpointF,PressureIn,WindDirection,WindDirectionDegrees,WindSpeedMPH,WindSpeedGustMPH,Humidity,HourlyPrecipIn,Conditions,Clouds,dailyrainin,SoftwareType,DateUTC
2013-02-20 00:00:00,38.9,37.6,29.58,NW,307,0.0,0.0,95,0.00,,,0.18,Wunderground v.1.15,2013-02-20 05:00:00,
2013-02-20 00:10:00,39.1,37.8,29.57,West,262,1.0,1.0,95,0.00,,,0.00,Wunderground v.1.15,2013-02-20 05:10:00,
2013-02-20 00:20:00,39.1,37.8,29.56,West,265,1.0,1.0,95,0.00,,,0.00,Wunderground v.1.15,2013-02-20 05:20:00,
2013-02-20 00:30:00,39.1,37.8,29.56,WNW,294,0.0,0.0,95,0.00,,,0.00,Wunderground v.1.15,2013-02-20 05:30:00,
2013-02-20 00:40:00,39.1,37.8,29.56,WNW,294,0.0,0.0,95,0.00,,,0.00,Wunderground v.1.15,2013-02-20 05:40:00,
2013-02-20 00:50:00,39.1,37.8,29.54,WNW,294,0.0,1.0,95,0.00,,,0.00,Wunderground v.1.15,2013-02-20 05:50:00,
2013-02-20 01:00:00,39.0,37.7,29.54,WNW,294,0.0,0.0,95,0.00,,,0.00,Wunderground v.1.15,2013-02-20 06:00:00,
2013-02-20 01:10:00,39.3,38.0,29.54,WNW,294,0.0,0.0,95,0.00,,,0.00,Wunderground v.1.15,2013-02-20 06:10:00,
2013-02-20 01:20:00,39.1,37.5,29.54,WNW,294,0.0,0.0,94,0.00,,,0.00,Wunderground v.1.15,2013-02-20 06:20:00,
2013-02-20 01:30:00,38.0,36.4,29.54,WNW,294,0.0,0.0,94,0.00,,,0.00,Wunderground v.1.15,2013-02-20 06:30:00,
2013-02-20 01:40:00,37.3,35.7,29.54,WNW,294,0.0,0.0,94,0.00,,,0.00,Wunderground v.1.15,2013-02-20 06:40:00,
2013-02-20 01:50:00,36.1,34.3,29.55,West,278,1.0,3.0,93,0.00,,,0.00,Wunderground v.1.15,2013-02-20 06:50:00,
2013-02-20 02:00:00,36.3,35.0,29.55,West,271,1.0,2.0,95,0.00,,,0.00,Wunderground v.1.15,2013-02-20 07:00:00,
2013-02-20 02:10:00,37.0,36.0,29.55,SW,225,1.0,3.0,96,0.00,,,0.00,Wunderground v.1.15,2013-02-20 07:10:00,
2013-02-20 02:20:00,37.3,36.3,29.55,NNW,330,1.0,1.0,96,0.00,,,0.00,Wunderground v.1.15,2013-02-20 07:20:00,
2013-02-20 02:30:00,37.2,35.9,29.54,West,267,1.0,1.0,95,0.00,,,0.00,Wunderground v.1.15,2013-02-20 07:30:00,
2013-02-20 02:40:00,37.1,35.8,29.54,West,263,0.0,1.0,95,0.00,,,0.00,Wunderground v.1.15,2013-02-20 07:40:00,
2013-02-20 02:50:00,37.1,35.8,29.54,West,267,1.0,1.0,95,0.00,,,0.00,Wunderground v.1.15,2013-02-20 07:50:00,
2013-02-20 03:00:00,37.0,35.7,29.54,WNW,292,1.0,2.0,95,0.00,,,0.00,Wunderground v.1.15,2013-02-20 08:00:00,
2013-02-20 03:10:00,36.8,35.5,29.54,West,273,0.0,1.0,95,0.00,,,0.00,Wunderground v.1.15,2013-02-20 08:10:00,
2013-02-20 03:20:00,36.6,35.3,29.54,NNW,341,0.0,2.0,95,0.00,,,0.00,Wunderground v.1.15,2013-02-20 08:20:00,
2013-02-20 03:30:00,36.6,34.5,29.54,WNW,299,5.0,5.0,92,0.00,,,0.00,Wunderground v.1.15,2013-02-20 08:30:00,
2013-02-20 03:40:00,36.1,33.5,29.54,WNW,282,4.0,4.0,90,0.00,,,0.00,Wunderground v.1.15,2013-02-20 08:40:00,
2013-02-20 03:50:00,35.6,33.0,29.55,WNW,295,3.0,3.0,90,0.00,,,0.00,Wunderground v.1.15,2013-02-20 08:50:00,
2013-02-20 04:00:00,35.1,32.2,29.55,WNW,291,2.0,8.0,89,0.00,,,0.00,Wunderground v.1.15,2013-02-20 09:00:00,
2013-02-20 04:10:00,34.9,31.4,29.56,NNW,331,4.0,9.0,87,0.00,,,0.00,Wunderground v.1.15,2013-02-20 09:10:00,
2013-02-20 04:20:00,34.7,31.2,29.56,West,279,4.0,6.0,87,0.00,,,0.00,Wunderground v.1.15,2013-02-20 09:20:00,
2013-02-20 04:30:00,34.6,30.6,29.56,NW,311,4.0,9.0,85,0.00,,,0.00,Wunderground v.1.15,2013-02-20 09:30:00,
2013-02-20 04:40:00,34.2,30.2,29.57,West,275,4.0,4.0,85,0.00,,,0.00,Wunderground v.1.15,2013-02-20 09:40:00,
2013-02-20 04:50:00,34.1,29.8,29.57,NW,309,4.0,4.0,84,0.00,,,0.00,Wunderground v.1.15,2013-02-20 09:50:00,
2013-02-20 05:00:00,33.9,29.3,29.57,WNW,282,3.0,4.0,83,0.00,,,0.00,Wunderground v.1.15,2013-02-20 10:00:00,
2013-02-20 05:10:00,33.7,29.1,29.57,WNW,299,3.0,3.0,83,0.00,,,0.00,Wunderground v.1.15,2013-02-20 10:10:00,
2013-02-20 05:20:00,33.5,28.3,29.58,NNW,329,4.0,4.0,81,0.00,,,0.00,Wunderground v.1.15,2013-02-20 10:20:00,
2013-02-20 05:30:00,33.3,27.8,29.58,WNW,299,4.0,4.0,80,0.00,,,0.00,Wunderground v.1.15,2013-02-20 10:30:00,
2013-02-20 05:40:00,33.0,27.5,29.58,NW,311,4.0,6.0,80,0.00,,,0.00,Wunderground v.1.15,2013-02-20 10:40:00,
2013-02-20 05:50:00,32.9,26.8,29.58,NNW,344,4.0,4.0,78,0.00,,,0.00,Wunderground v.1.15,2013-02-20 10:50:00,
2013-02-20 06:00:00,32.8,26.1,29.58,West,265,4.0,4.0,76,0.00,,,0.00,Wunderground v.1.15,2013-02-20 11:00:00,
2013-02-20 06:10:00,32.5,25.5,29.59,WNW,298,4.0,4.0,75,0.00,,,0.00,Wunderground v.1.15,2013-02-20 11:10:00,
2013-02-20 06:20:00,32.6,25.2,29.59,NW,317,4.0,4.0,74,0.00,,,0.00,Wunderground v.1.15,2013-02-20 11:20:00,
2013-02-20 06:30:00,32.5,25.1,29.59,West,269,3.0,3.0,74,0.00,,,0.00,Wunderground v.1.15,2013-02-20 11:30:00,
2013-02-20 06:40:00,32.4,24.7,29.60,West,267,3.0,11.0,73,0.00,,,0.00,Wunderground v.1.15,2013-02-20 11:40:00,
2013-02-20 06:50:00,32.1,23.8,29.61,West,279,4.0,4.0,71,0.00,,,0.00,Wunderground v.1.15,2013-02-20 11:50:00,
2013-02-20 07:00:00,31.7,23.0,29.61,NNW,333,4.0,4.0,70,0.00,,,0.00,Wunderground v.1.15,2013-02-20 12:00:00,
2013-02-20 07:10:00,31.3,22.0,29.61,WNW,288,5.0,9.0,68,0.00,,,0.00,Wunderground v.1.15,2013-02-20 12:10:00,
2013-02-20 07:20:00,31.0,22.0,29.62,NW,304,5.0,5.0,69,0.00,,,0.00,Wunderground v.1.15,2013-02-20 12:20:00,
2013-02-20 07:30:00,31.0,22.0,29.63,WNW,303,5.0,5.0,69,0.00,,,0.00,Wunderground v.1.15,2013-02-20 12:30:00,
2013-02-20 07:40:00,31.2,21.9,29.64,WNW,294,5.0,5.0,68,0.00,,,0.00,Wunderground v.1.15,2013-02-20 12:40:00,
2013-02-20 07:50:00,31.3,21.3,29.64,SW,229,5.0,5.0,66,0.00,,,0.00,Wunderground v.1.15,2013-02-20 12:50:00,
2013-02-20 08:00:00,31.5,21.4,29.64,WNW,296,5.0,5.0,66,0.00,,,0.00,Wunderground v.1.15,2013-02-20 13:00:00,
2013-02-20 08:10:00,31.6,21.2,29.64,West,260,5.0,13.0,65,0.00,,,0.00,Wunderground v.1.15,2013-02-20 13:10:00,
2013-02-20 08:20:00,31.8,21.0,29.64,West,273,6.0,6.0,64,0.00,,,0.00,Wunderground v.1.15,2013-02-20 13:20:00,
2013-02-20 08:30:00,31.6,21.2,29.64,West,261,7.0,10.0,65,0.00,,,0.00,Wunderground v.1.15,2013-02-20 13:30:00,
2013-02-20 08:40:00,31.7,20.5,29.64,West,264,6.0,17.0,63,0.00,,,0.00,Wunderground v.1.15,2013-02-20 13:40:00,
2013-02-20 08:50:00,32.0,20.8,29.64,West,266,5.0,10.0,63,0.00,,,0.00,Wunderground v.1.15,2013-02-20 13:50:00,
2013-02-20 09:00:00,32.0,20.1,29.64,NW,304,7.0,7.0,61,0.00,,,0.00,Wunderground v.1.15,2013-02-20 14:00:00,
2013-02-20 09:10:00,32.5,20.1,29.64,West,281,6.0,7.0,60,0.00,,,0.00,Wunderground v.1.15,2013-02-20 14:10:00,
2013-02-20 09:20:00,32.8,20.4,29.64,SSW,202,6.0,6.0,60,0.00,,,0.00,Wunderground v.1.15,2013-02-20 14:20:00,
2013-02-20 09:30:00,33.5,20.7,29.65,NW,307,4.0,7.0,59,0.00,,,0.00,Wunderground v.1.15,2013-02-20 14:30:00,
2013-02-20 09:40:00,32.9,20.9,29.65,WNW,288,6.0,9.0,61,0.00,,,0.00,Wunderground v.1.15,2013-02-20 14:40:00,
2013-02-20 09:50:00,32.6,20.6,29.65,West,259,7.0,11.0,61,0.00,,,0.00,Wunderground v.1.15,2013-02-20 14:50:00,
2013-02-20 10:00:00,32.4,20.0,29.64,North,5,8.0,8.0,60,0.00,,,0.00,Wunderground v.1.15,2013-02-20 15:00:00,
2013-02-20 10:10:00,32.6,20.2,29.64,WSW,252,7.0,10.0,60,0.00,,,0.00,Wunderground v.1.15,2013-02-20 15:10:00,
2013-02-20 10:20:00,33.3,20.1,29.64,WNW,290,7.0,7.0,58,0.00,,,0.00,Wunderground v.1.15,2013-02-20 15:20:00,
2013-02-20 10:30:00,33.1,19.9,29.64,SW,224,8.0,11.0,58,0.00,,,0.00,Wunderground v.1.15,2013-02-20 15:30:00,
2013-02-20 10:40:00,32.8,18.8,29.65,NNW,331,7.0,7.0,56,0.00,,,0.00,Wunderground v.1.15,2013-02-20 15:40:00,
2013-02-20 10:50:00,32.7,18.3,29.65,West,273,7.0,9.0,55,0.00,,,0.00,Wunderground v.1.15,2013-02-20 15:50:00,
2013-02-20 11:00:00,32.1,17.7,29.65,West,264,8.0,8.0,55,0.00,,,0.00,Wunderground v.1.15,2013-02-20 16:00:00,
2013-02-20 11:10:00,32.0,18.1,29.65,NW,308,8.0,8.0,56,0.00,,,0.00,Wunderground v.1.15,2013-02-20 16:10:00,
2013-02-20 11:20:00,32.2,18.2,29.65,WSW,247,7.0,10.0,56,0.00,,,0.00,Wunderground v.1.15,2013-02-20 16:20:00,
2013-02-20 11:30:00,32.5,17.7,29.65,WSW,242,7.0,23.0,54,0.00,,,0.00,Wunderground v.1.15,2013-02-20 16:30:00,
2013-02-20 11:40:00,33.3,18.4,29.65,WNW,289,6.0,6.0,54,0.00,,,0.00,Wunderground v.1.15,2013-02-20 16:40:00,
2013-02-20 11:50:00,33.7,18.8,29.64,WNW,298,7.0,7.0,54,0.00,,,0.00,Wunderground v.1.15,2013-02-20 16:50:00,
2013-02-20 12:00:00,33.3,17.5,29.64,WSW,250,7.0,12.0,52,0.00,,,0.00,Wunderground v.1.15,2013-02-20 17:00:00,
2013-02-20 12:10:00,33.4,17.6,29.64,WSW,238,9.0,14.0,52,0.00,,,0.00,Wunderground v.1.15,2013-02-20 17:10:00,
2013-02-20 12:20:00,32.5,17.2,29.64,West,259,8.0,13.0,53,0.00,,,0.00,Wunderground v.1.15,2013-02-20 17:20:00,
2013-02-20 12:30:00,32.3,16.6,29.64,West,263,8.0,16.0,52,0.00,,,0.00,Wunderground v.1.15,2013-02-20 17:30:00,
2013-02-20 12:40:00,32.1,15.5,29.64,NW,316,8.0,9.0,50,0.00,,,0.00,Wunderground v.1.15,2013-02-20 17:40:00,
2013-02-20 12:50:00,32.4,15.8,29.63,North,9,7.0,7.0,50,0.00,,,0.00,Wunderground v.1.15,2013-02-20 17:50:00,
2013-02-20 13:00:00,32.6,16.9,29.63,WSW,257,6.0,6.0,52,0.00,,,0.00,Wunderground v.1.15,2013-02-20 18:00:00,
2013-02-20 13:10:00,32.7,16.5,29.63,WSW,257,5.0,5.0,51,0.00,,,0.00,Wunderground v.1.15,2013-02-20 18:10:00,
2013-02-20 13:20:00,32.9,15.8,29.63,WNW,296,6.0,6.0,49,0.00,,,0.00,Wunderground v.1.15,2013-02-20 18:20:00,
2013-02-20 13:30:00,32.2,15.6,29.63,NNW,329,6.0,6.0,50,0.00,,,0.00,Wunderground v.1.15,2013-02-20 18:30:00,
2013-02-20 13:40:00,32.2,15.6,29.63,NW,306,6.0,6.0,50,0.00,,,0.00,Wunderground v.1.15,2013-02-20 18:40:00,
2013-02-20 13:49:00,32.5,14.5,29.62,WNW,299,6.0,7.0,47,0.00,,,0.00,Wunderground v.1.15,2013-02-20 18:49:00,
2013-02-20 14:00:00,32.5,14.0,29.63,NW,309,7.0,7.0,46,0.00,,,0.00,Wunderground v.1.15,2013-02-20 19:00:00,
2013-02-20 14:10:00,32.5,15.0,29.63,WSW,257,6.0,9.0,48,0.00,,,0.00,Wunderground v.1.15,2013-02-20 19:10:00,
2013-02-20 14:20:00,32.6,15.1,29.63,West,271,6.0,7.0,48,0.00,,,0.00,Wunderground v.1.15,2013-02-20 19:20:00,
2013-02-20 14:30:00,33.1,14.5,29.63,NW,312,6.0,6.0,46,0.00,,,0.00,Wunderground v.1.15,2013-02-20 19:30:00,
2013-02-20 14:40:00,32.6,14.6,29.64,NW,317,7.0,16.0,47,0.00,,,0.00,Wunderground v.1.15,2013-02-20 19:40:00,
2013-02-20 14:50:00,33.0,13.9,29.64,WNW,286,7.0,7.0,45,0.00,,,0.00,Wunderground v.1.15,2013-02-20 19:50:00,
2013-02-20 15:00:00,32.9,13.9,29.64,WNW,300,7.0,11.0,45,0.00,,,0.00,Wunderground v.1.15,2013-02-20 20:00:00,
2013-02-20 15:10:00,32.8,14.8,29.64,West,272,5.0,5.0,47,0.00,,,0.00,Wunderground v.1.15,2013-02-20 20:10:00,
2013-02-20 15:19:00,33.1,14.5,29.64,WNW,292,6.0,6.0,46,0.00,,,0.00,Wunderground v.1.15,2013-02-20 20:19:00,
2013-02-20 15:30:00,32.8,12.7,29.65,NNW,330,9.0,9.0,43,0.00,,,0.00,Wunderground v.1.15,2013-02-20 20:30:00,
2013-02-20 15:40:00,32.7,12.6,29.65,West,268,7.0,9.0,43,0.00,,,0.00,Wunderground v.1.15,2013-02-20 20:40:00,
2013-02-20 15:49:00,32.4,12.9,29.65,NNE,26,8.0,8.0,44,0.00,,,0.00,Wunderground v.1.15,2013-02-20 20:49:00,
2013-02-20 16:00:00,31.6,12.7,29.65,NW,317,7.0,7.0,45,0.00,,,0.00,Wunderground v.1.15,2013-02-20 21:00:00,
2013-02-20 16:10:00,30.8,12.4,29.66,WNW,289,7.0,7.0,46,0.00,,,0.00,Wunderground v.1.15,2013-02-20 21:10:00,
2013-02-20 16:20:00,30.9,12.0,29.66,West,260,5.0,10.0,45,0.00,,,0.00,Wunderground v.1.15,2013-02-20 21:20:00,
2013-02-20 16:30:00,30.7,12.3,29.66,WNW,299,5.0,5.0,46,0.00,,,0.00,Wunderground v.1.15,2013-02-20 21:30:00,
2013-02-20 16:40:00,30.5,13.6,29.66,NNW,348,5.0,5.0,49,0.00,,,0.00,Wunderground v.1.15,2013-02-20 21:40:00,
2013-02-20 16:50:00,30.2,12.4,29.67,WNW,300,5.0,10.0,47,0.00,,,0.00,Wunderground v.1.15,2013-02-20 21:50:00,
2013-02-20 17:00:00,29.8,12.0,29.67,West,271,6.0,9.0,47,0.00,,,0.00,Wunderground v.1.15,2013-02-20 22:00:00,
2013-02-20 17:10:00,29.6,12.3,29.67,NW,304,7.0,9.0,48,0.00,,,0.00,Wunderground v.1.15,2013-02-20 22:10:00,
2013-02-20 17:20:00,29.4,12.1,29.67,NW,305,6.0,6.0,48,0.00,,,0.00,Wunderground v.1.15,2013-02-20 22:20:00,
2013-02-20 17:30:00,29.1,11.8,29.67,NE,36,7.0,7.0,48,0.00,,,0.00,Wunderground v.1.15,2013-02-20 22:30:00,
2013-02-20 17:40:00,29.0,11.3,29.68,WSW,238,7.0,7.0,47,0.00,,,0.00,Wunderground v.1.15,2013-02-20 22:40:00,
2013-02-20 17:50:00,28.9,11.6,29.69,WSW,252,7.0,7.0,48,0.00,,,0.00,Wunderground v.1.15,2013-02-20 22:50:00,
2013-02-20 18:00:00,28.7,11.5,29.69,West,281,5.0,5.0,48,0.00,,,0.00,Wunderground v.1.15,2013-02-20 23:00:00,
2013-02-20 18:10:00,28.5,11.7,29.69,WNW,302,6.0,6.0,49,0.00,,,0.00,Wunderground v.1.15,2013-02-20 23:10:00,
2013-02-20 18:20:00,28.4,12.1,29.70,NW,317,5.0,7.0,50,0.00,,,0.00,Wunderground v.1.15,2013-02-20 23:20:00,
2013-02-20 18:30:00,28.3,12.5,29.71,North,355,6.0,6.0,51,0.00,,,0.00,Wunderground v.1.15,2013-02-20 23:30:00,
2013-02-20 18:40:00,28.1,12.3,29.71,WNW,288,7.0,7.0,51,0.00,,,0.00,Wunderground v.1.15,2013-02-20 23:40:00,
2013-02-20 18:50:00,27.8,12.4,29.71,NNW,342,5.0,7.0,52,0.00,,,0.00,Wunderground v.1.15,2013-02-20 23:50:00,
2013-02-20 19:00:00,27.6,13.1,29.71,NW,317,4.0,5.0,54,0.00,,,0.00,Wunderground v.1.15,2013-02-21 00:00:00,
2013-02-20 19:10:00,27.6,13.1,29.71,West,274,6.0,12.0,54,0.00,,,0.00,Wunderground v.1.15,2013-02-21 00:10:00,
2013-02-20 19:19:00,27.5,13.0,29.71,NW,304,5.0,6.0,54,0.00,,,0.00,Wunderground v.1.15,2013-02-21 00:19:00,
2013-02-20 19:30:00,27.5,12.6,29.71,WNW,291,6.0,6.0,53,0.00,,,0.00,Wunderground v.1.15,2013-02-21 00:30:00,
2013-02-20 19:40:00,27.5,13.0,29.71,WNW,297,4.0,5.0,54,0.00,,,0.00,Wunderground v.1.15,2013-02-21 00:40:00,
2013-02-20 19:50:00,27.6,13.1,29.71,WSW,255,6.0,6.0,54,0.00,,,0.00,Wunderground v.1.15,2013-02-21 00:50:00,
2013-02-20 20:00:00,27.6,12.7,29.71,WSW,255,7.0,7.0,53,0.00,,,0.00,Wunderground v.1.15,2013-02-21 01:00:00,
2013-02-20 20:10:00,27.5,13.8,29.72,WNW,292,4.0,4.0,56,0.00,,,0.00,Wunderground v.1.15,2013-02-21 01:10:00,
2013-02-20 20:20:00,27.5,13.0,29.72,NW,308,7.0,7.0,54,0.00,,,0.00,Wunderground v.1.15,2013-02-21 01:20:00,
2013-02-20 20:30:00,27.4,13.7,29.72,NW,312,6.0,7.0,56,0.00,,,0.00,Wunderground v.1.15,2013-02-21 01:30:00,
2013-02-20 20:40:00,27.1,13.5,29.73,WNW,287,6.0,6.0,56,0.00,,,0.00,Wunderground v.1.15,2013-02-21 01:40:00,
2013-02-20 20:50:00,26.9,14.1,29.73,West,275,4.0,6.0,58,0.00,,,0.00,Wunderground v.1.15,2013-02-21 01:50:00,
2013-02-20 21:00:00,26.7,13.9,29.73,NNW,327,4.0,4.0,58,0.00,,,0.00,Wunderground v.1.15,2013-02-21 02:00:00,
2013-02-20 21:10:00,26.6,14.2,29.73,WNW,302,4.0,4.0,59,0.00,,,0.00,Wunderground v.1.15,2013-02-21 02:10:00,
2013-02-20 21:20:00,26.4,13.6,29.73,West,277,3.0,3.0,58,0.00,,,0.00,Wunderground v.1.15,2013-02-21 02:20:00,
2013-02-20 21:30:00,26.3,13.5,29.73,West,267,4.0,4.0,58,0.00,,,0.00,Wunderground v.1.15,2013-02-21 02:30:00,
2013-02-20 21:40:00,26.2,13.8,29.73,West,267,4.0,5.0,59,0.00,,,0.00,Wunderground v.1.15,2013-02-21 02:40:00,
2013-02-20 21:50:00,26.1,14.1,29.74,NW,322,4.0,6.0,60,0.00,,,0.00,Wunderground v.1.15,2013-02-21 02:50:00,
2013-02-20 22:00:00,26.1,14.1,29.74,West,279,5.0,6.0,60,0.00,,,0.00,Wunderground v.1.15,2013-02-21 03:00:00,
2013-02-20 22:10:00,26.2,14.2,29.75,WSW,257,4.0,10.0,60,0.00,,,0.00,Wunderground v.1.15,2013-02-21 03:10:00,
2013-02-20 22:20:00,26.3,14.3,29.75,NNW,328,5.0,5.0,60,0.00,,,0.00,Wunderground v.1.15,2013-02-21 03:20:00,
2013-02-20 22:30:00,26.3,14.7,29.75,West,279,3.0,3.0,61,0.00,,,0.00,Wunderground v.1.15,2013-02-21 03:30:00,
2013-02-20 22:40:00,26.2,14.6,29.76,WSW,244,4.0,4.0,61,0.00,,,0.00,Wunderground v.1.15,2013-02-21 03:40:00,
2013-02-20 22:50:00,26.3,14.7,29.76,WNW,282,4.0,4.0,61,0.00,,,0.00,Wunderground v.1.15,2013-02-21 03:50:00,
2013-02-20 23:00:00,26.4,14.8,29.76,NNW,333,5.0,6.0,61,0.00,,,0.00,Wunderground v.1.15,2013-02-21 04:00:00,
2013-02-20 23:10:00,26.4,15.1,29.77,WNW,296,5.0,5.0,62,0.00,,,0.00,Wunderground v.1.15,2013-02-21 04:10:00,
2013-02-20 23:20:00,26.4,15.5,29.77,NNW,341,6.0,6.0,63,0.00,,,0.00,Wunderground v.1.15,2013-02-21 04:20:00,
2013-02-20 23:30:00,26.4,15.5,29.77,WNW,292,5.0,5.0,63,0.00,,,0.00,Wunderground v.1.15,2013-02-21 04:30:00,
2013-02-20 23:40:00,26.4,15.5,29.77,NW,325,4.0,4.0,63,0.00,,,0.00,Wunderground v.1.15,2013-02-21 04:40:00,
2013-02-20 23:50:00,26.4,15.9,29.77,WNW,290,6.0,6.0,64,0.00,,,0.00,Wunderground v.1.15,2013-02-21 04:50:00,